sat.trackr.live / text

‹ back to catalog

STARLINK-31772

NORAD 59430 · 2024-065K

PAYLOAD ACTIVE UNKNOWN

§ Identity

Operator
Country
US
Launch date
2024-04-07
Launch site
AFWTR
Launch vehicle
Mass (kg)
RCS (m²)

Purposes: comms

External: N2YO · Heavens-Above · Gunter

§ Orbital elements

Epoch: 2026-05-25T02:46:57.883008Z

Period
94.11 min
Inclination
53.1620°
Eccentricity
0.0000945
Mean motion
15.30181547 rev/d
Perigee alt
474.6 km
Apogee alt
475.9 km
Semi-major
6,853.4 km
B*
8.2016e-6
RAAN
286.4635°
Arg perigee
115.0221°
Mean anomaly
245.0878°
Rev number
12,063

§ Raw data

STARLINK-317721 59430U 24065K   26145.11594772 -.00000116  00000+0  82016-5 0  99922 59430  53.1620 286.4635 0000945 115.0221 245.0878 15.30181547120635

JSON: /api/v1/satellites/59430 · /tle

For live sub-satellite position, see the globe view (requires WebGL).

§ Visibility from observer

Set your observer location to see the next 7 days of passes ≥ 10°. The values pass through the URL so the page stays shareable.

No JS? Fill the form by hand. The geolocation button needs JavaScript.